Cloud_Cover
100 100 100 83 100 95 100 100 93 100 99 100 100 100 100 97 78 88 100 99 26 94 78 5 5 62 61 5 9 5 45 22 5 5 79 100 16 5 5 0 3 5 0 0 0
100 100 100 100 100 100 100 100 100 100 100 100 97 97 94 73 55 70 98 98 97 24 38 30 16 7 11 18 16 61 15 29 5 18 95 100 66 5 18 2 3 5 0 0 0
100 100 100 100 100 100 100 100 100 100 100 100 67 60 59 50 47 29 88 100 89 63 98 63 66 55 30 58 55 100 99 6 89 71 95 100 95 63 1 61 16 0 0 0 0
100 100 100 100 100 100 100 100 100 100 89 100 93 32 100 78 24 28 35 96 36 80 23 46 18 64 88 98 52 89 99 24 68 39 71 100 91 46 48 37 85 8 0 4 1
100 100 100 100 100 100 100 100 100 100 100 100 100 99 90 34 43 5 56 98 24 17 55 31 65 64 34 100 96 100 99 93 78 100 86 68 14 100 100 88 8 2 5 5 5
100 100 100 100 99 100 100 100 100 78 100 100 100 100 89 52 54 43 77 99 18 5 26 89 71 48 51 100 100 90 92 100 100 69 100 41 1 100 100 34 4 10 5 5 15
100 100 100 100 100 100 100 100 100 69 100 100 100 90 92 23 100 96 100 100 71 34 47 52 63 25 56 100 100 100 51 97 32 87 98 6 1 85 100 43 31 5 48 56 35
100 100 100 100 100 100 100 77 100 92 100 100 99 77 100 30 85 77 100 77 39 68 62 8 88 90 94 100 100 100 100 21 61 50 98 7 0 64 100 100 34 54 10 79 88
100 100 100 100 100 100 100 100 100 98 78 100 100 98 70 90 86 90 99 69 100 100 100 94 80 68 100 100 95 100 100 48 48 100 31 46 4 5 47 60 5 33 100 53 5
100 100 100 100 100 100 99 100 100 100 100 100 100 78 68 78 98 100 99 28 96 100 100 96 62 96 100 97 91 100 99 96 85 22 66 100 38 5 5 5 26 100 85 5 5
100 100 100 100 100 100 100 100 100 100 100 70 93 55 79 98 92 98 94 100 100 100 100 79 100 100 97 82 67 95 100 89 100 100 100 100 40 5 28 14 20 5 5 4 0
100 100 99 100 100 100 100 100 98 92 99 47 96 100 98 99 86 100 90 94 100 99 100 100 100 97 16 83 86 100 61 10 79 100 64 12 9 76 100 100 6 5 1 0 0
100 100 100 100 100 97 100 100 100 100 98 100 100 100 100 98 100 100 94 97 100 100 100 100 100 62 27 95 100 100 9 8 69 58 58 76 95 96 96 44 12 4 4 5 4
100 100 100 100 100 100 100 100 100 100 100 100 100 100 100 100 100 98 100 100 100 100 100 98 100 47 46 100 58 98 9 17 100 34 43 98 100 94 100 32 22 5 5 5 5
100 100 100 100 100 100 100 100 100 100 100 100 100 100 15 100 100 100 100 98 82 100 99 94 98 60 100 86 75 31 100 95 100 98 76 9 100 85 88 17 7 3 5 0 5
100 100 100 100 100 100 100 100 100 100 100 100 100 100 100 100 100 100 100 60 64 30 100 32 100 100 98 79 5 85 100 100 100 97 96 65 72 78 59 70 16 2 5 0 4
100 100 100 100 100 100 100 100 98 100 100 100 100 99 53 20 65 100 93 44 84 95 88 99 100 100 81 37 85 100 100 92 43 25 100 100 55 6 88 99 6 0 4 0 2
100 100 100 100 100 100 100 100 100 100 100 100 100 100 96 96 89 54 85 100 93 100 75 100 90 35 6 5 66 48 58 16 24 100 100 100 49 5 97 5 5 4 5 0 4
100 100 100 100 100 100 100 100 100 100 85 100 100 100 100 100 100 100 100 98 100 100 100 56 76 63 5 11 8 41 6 5 22 82 100 100 64 100 60 62 1 2 4 0 0
100 100 100 100 92 100 100 100 100 100 100 92 100 100 100 100 90 96 100 100 42 15 5 5 10 7 70 78 92 91 89 80 45 85 100 100 100 100 100 5 5 5 5 1 0
100 100 100 100 98 40 60 100 100 100 100 100 100 100 100 100 100 100 100 17 34 49 77 27 7 54 36 37 5 56 100 100 97 95 75 100 100 100 30 13 5 0 1 0 0
100 100 100 100 100 100 100 100 79 100 100 100 100 100 17 100 100 100 100 100 92 100 74 40 26 90 89 77 5 7 100 100 76 62 100 100 100 7 5 62 5 0 5 2 4
100 99 100 100 100 100 100 100 100 74 5 31 65 85 82 98 88 100 94 96 59 21 5 44 9 75 90 77 47 5 100 100 42 100 100 100 98 5 5 5 5 0 5 5 5
100 100 100 100 96 100 100 100 100 100 38 62 5 5 49 5 29 78 35 9 10 5 5 37 13 67 78 11 91 57 100 92 97 99 100 100 70 5 5 10 6 5 5 5 5
100 100 100 100 100 100 100 100 100 100 94 56 31 13 94 5 4 3 20 37 2 0 0 5 62 100 100 76 77 85 84 100 100 83 52 100 98 40 2 5 5 5 5 5 5
100 100 100 100 100 100 100 100 100 100 100 100 98 100 89 5 5 5 0 0 0 2 5 5 26 100 100 98 10 6 100 100 100 77 60 100 100 58 25 5 5 0 5 4 5
100 100 100 100 100 100 100 100 100 100 100 100 100 87 40 75 29 5 5 4 2 3 5 6 94 100 37 100 22 1 100 100 100 47 8 89 100 100 99 63 21 5 5 5 5